Wind_Speed
1 2 2 5 6 3 6 1 4 5 4 11 6 2 11 20 19 12 5 2 3 10 12 21 21 8 7 6 7 6 6 7 9 9 10 10 10 11 10 9 9 9 11 16 15 13 11 9 9
1 1 5 5 4 4 7 6 2 7 10 9 4 14 10 17 19 15 7 5 4 1 3 10 17 3 4 6 6 6 7 8 10 10 10 11 12 12 10 9 11 13 16 19 19 15 12 11 10
2 4 6 6 8 4 3 5 6 6 9 6 5 7 7 15 20 16 13 3 4 0 7 10 13 16 15 12 8 6 6 9 10 11 11 11 10 11 11 10 8 6 17 22 21 17 16 14 12
7 9 9 13 9 13 6 3 2 4 7 4 3 3 10 10 12 13 16 9 6 11 16 18 15 12 14 10 12 10 8 7 10 11 11 12 11 10 8 8 8 7 7 24 26 26 19 17 15
9 14 17 14 15 14 10 9 10 6 6 4 5 4 6 7 4 9 11 12 9 11 24 22 15 7 8 11 9 9 9 9 8 12 13 13 13 9 7 8 11 12 9 18 29 24 21 18 15
14 15 14 10 14 9 7 8 11 8 2 2 4 3 5 7 4 2 10 16 13 11 19 26 19 15 8 7 10 10 10 10 10 10 12 12 11 10 6 8 10 6 3 16 30 24 19 18 16
17 13 21 13 10 5 7 6 12 7 4 1 2 5 4 7 8 7 7 9 15 18 19 22 25 23 11 5 7 10 11 12 11 11 10 11 11 8 10 8 11 3 2 19 16 22 17 17 16
14 8 17 13 9 7 7 11 8 9 9 0 2 1 4 6 8 11 7 8 10 12 16 20 23 25 14 15 10 12 12 12 13 12 10 11 11 12 11 9 10 9 2 14 16 17 17 17 15
9 8 9 9 3 1 5 13 15 13 8 6 2 4 4 4 9 9 12 7 11 13 13 15 19 17 19 21 15 10 13 14 14 13 12 12 11 11 10 10 11 10 3 15 14 16 17 17 15
7 9 10 7 3 4 6 7 5 5 3 3 4 5 8 7 8 9 13 12 11 16 16 16 19 22 25 26 22 17 16 13 15 15 13 13 12 12 12 13 17 14 4 11 18 17 18 17 16
10 13 4 4 5 3 9 11 5 10 10 8 10 11 12 11 11 9 12 15 13 17 19 19 20 21 20 22 24 21 21 17 14 15 14 14 13 13 14 15 15 14 7 8 25 20 20 19 17
8 13 11 8 11 13 16 14 13 10 1 8 15 17 18 16 16 13 13 12 14 17 20 23 23 23 22 20 21 23 23 21 17 15 14 14 15 15 15 16 13 13 9 6 12 29 21 21 20
16 12 8 4 8 9 7 8 5 2 7 13 16 20 22 20 18 18 17 15 14 16 18 22 25 25 26 23 20 20 19 20 18 18 17 14 15 16 17 15 15 14 17 5 9 30 27 23 24
8 12 13 7 5 11 11 3 5 3 6 12 15 20 23 24 22 21 22 22 19 20 17 19 24 25 29 30 25 22 21 14 18 17 19 17 15 14 19 15 14 14 14 8 5 21 33 23 25
7 6 7 5 7 9 14 9 6 5 10 14 14 15 19 23 26 29 30 32 30 26 25 19 19 24 27 33 33 29 24 20 17 18 19 20 19 17 16 17 17 15 14 9 4 15 40 28 27
3 4 6 8 7 16 14 1 6 12 14 14 16 17 19 24 27 26 31 32 29 34 35 30 25 20 21 30 32 34 36 30 24 18 19 19 18 16 20 17 19 15 16 8 6 20 25 32 26
10 7 11 12 19 22 17 5 5 10 18 20 21 21 25 27 30 30 25 31 30 28 33 37 37 31 21 18 23 27 35 38 28 26 21 23 23 16 16 16 12 15 14 12 9 16 32 33 26
12 12 15 21 15 14 12 4 7 9 10 13 16 18 20 23 25 26 28 29 31 30 28 28 33 39 33 24 18 19 26 25 29 29 25 25 23 20 16 14 12 10 16 16 11 13 19 21 30
13 12 17 9 13 18 5 3 2 3 10 12 13 16 20 21 23 25 27 30 30 30 27 27 26 32 41 33 26 23 24 30 26 28 29 30 30 25 24 17 14 16 5 11 11 11 16 9 29
18 17 23 20 14 5 8 11 4 5 6 11 18 21 23 26 28 28 29 31 32 28 24 21 23 26 33 40 32 26 26 25 31 26 28 32 32 29 25 20 17 16 15 13 17 10 13 11 19
20 15 18 19 3 15 4 13 10 2 10 13 17 20 23 26 27 30 32 34 32 30 24 21 21 23 27 32 34 31 27 27 30 31 28 29 34 32 29 25 22 20 16 13 13 15 15 15 16
24 7 8 15 4 2 9 5 12 16 12 12 19 21 22 20 26 26 28 31 34 33 28 23 23 21 24 26 28 32 31 27 25 27 28 28 30 33 32 30 26 22 20 17 14 11 16 14 13
23 4 3 11 5 4 12 7 6 16 19 21 18 16 19 21 25 27 29 31 33 35 34 29 23 21 20 23 21 24 30 29 29 26 27 28 31 31 33 32 33 28 24 21 18 14 13 14 7
26 8 3 5 5 2 12 6 12 14 17 18 15 17 18 20 22 28 31 30 32 34 35 34 28 19 18 21 21 18 24 30 32 31 28 27 30 31 32 33 32 31 28 25 22 18 15 14 13
26 24 4 5 6 4 13 11 13 20 17 13 16 16 19 21 24 28 30 32 33 36 34 34 33 25 17 17 19 16 15 25 29 33 32 28 29 31 32 32 35 34 31 30 26 23 19 17 18
21 19 6 3 3 10 18 7 13 19 16 13 14 17 20 26 29 29 30 33 35 35 30 31 31 29 18 16 18 16 13 16 24 30 34 33 30 28 31 32 35 32 36 31 33 27 24 24 21
14 13 5 5 12 8 7 11 23 12 15 16 18 25 23 23 24 29 32 33 29 30 29 30 28 29 23 17 17 16 13 11 19 26 32 35 34 32 28 30 33 36 35 36 31 33 28 26 25
11 13 5 7 2 5 9 12 14 22 16 16 21 22 25 31 36 33 33 31 23 27 25 24 23 25 24 19 15 16 15 11 12 23 28 32 35 34 33 30 31 33 36 33 31 34 33 32 27
7 11 6 7 5 3 3 14 21 20 18 19 19 23 26 29 25 26 28 19 24 22 19 19 20 23 24 19 16 13 14 12 9 16 25 30 33 35 34 34 32 31 34 36 41 37 39 34 31
11 14 14 6 5 11 12 17 20 24 26 29 39 33 28 27 21 17 17 19 20 19 20 22 23 25 23 18 14 11 12 11 10 9 19 28 31 33 32 34 34 33 30 33 35 35 36 38 33
Wind_Direction
237 231 202 176 174 173 32 195 97 199 184 51 339 102 73 61 73 88 76 255 343 182 206 207 233 194 209 204 213 193 183 173 169 164 163 162 161 166 169 173 184 198 199 193 185 170 167 162 155
203 184 166 153 110 95 61 71 120 64 79 78 58 71 70 81 89 100 82 49 334 69 132 145 162 260 202 215 218 198 183 173 171 167 168 171 170 170 171 174 189 195 206 202 196 189 173 171 162
112 106 124 79 45 43 122 86 100 101 97 100 101 103 63 89 93 104 99 51 113 128 178 159 172 192 204 199 200 194 194 182 176 172 171 178 175 166 167 167 167 185 222 198 204 192 173 172 168
93 101 61 35 82 74 115 81 99 199 216 244 40 91 78 79 108 120 108 149 187 160 176 171 186 191 190 193 186 183 192 195 185 185 182 180 175 168 171 187 161 180 187 196 204 186 172 170 173
100 48 43 77 90 83 67 20 331 241 194 360 345 92 108 103 118 167 157 137 195 194 181 176 216 196 198 191 190 202 192 184 203 199 194 189 185 177 177 190 200 197 215 179 195 185 171 168 168
43 46 74 79 93 73 60 38 322 300 360 339 305 296 312 316 297 258 211 189 177 215 214 208 220 234 217 193 215 211 225 210 193 211 212 214 212 189 177 184 190 195 281 177 149 152 164 167 168
41 54 92 106 108 111 37 357 305 346 24 23 78 273 290 279 281 271 260 242 232 214 213 217 222 233 242 281 240 241 217 227 210 204 212 219 223 208 204 193 220 244 288 217 136 155 164 168 179
37 61 92 65 41 65 355 329 337 310 311 211 215 232 226 273 286 286 268 248 258 252 247 237 224 221 238 279 243 255 241 234 234 209 207 220 218 210 215 202 198 182 340 202 151 161 172 181 189
33 60 74 83 1 52 303 300 308 320 307 279 217 208 247 266 278 282 282 252 240 249 252 245 225 227 207 205 211 271 252 242 241 236 214 215 212 214 210 211 204 182 190 187 170 175 179 187 197
348 19 60 56 73 268 288 299 291 283 286 333 243 242 251 253 252 256 267 268 230 232 238 232 222 218 212 221 252 259 265 241 235 235 222 211 208 212 209 208 202 202 208 204 193 195 186 193 203
28 43 110 353 322 260 290 299 315 297 285 308 288 272 257 252 258 251 254 257 248 234 232 232 219 224 225 226 221 224 246 253 235 236 227 214 204 210 217 213 211 209 211 205 207 203 201 195 205
35 49 356 352 319 303 290 281 270 283 182 271 282 284 277 267 271 271 257 253 245 243 237 234 226 225 229 227 229 228 226 238 232 240 238 224 210 208 211 219 212 202 202 205 221 201 206 198 202
56 36 357 348 308 316 303 269 276 142 200 242 265 279 290 296 299 309 306 281 263 246 247 240 244 233 225 217 210 209 220 227 228 235 239 237 226 219 208 212 210 216 219 262 237 212 208 204 203
80 127 113 66 26 26 343 270 257 146 208 247 277 296 311 327 327 321 312 305 288 272 260 252 246 245 232 222 217 216 211 222 227 227 238 242 238 243 214 204 218 222 201 263 225 213 199 205 206
135 181 156 62 49 24 336 292 287 234 259 285 307 319 323 334 334 334 331 319 303 293 277 280 257 252 246 232 231 235 222 222 231 230 234 242 239 232 238 211 204 211 197 217 269 208 196 207 209
192 229 316 325 292 335 336 311 267 268 271 280 293 306 321 330 337 340 333 329 325 306 288 282 277 261 248 248 238 239 231 235 240 232 230 234 235 230 242 222 199 211 221 223 241 203 202 205 207
58 9 340 325 332 343 343 242 269 289 287 299 304 313 320 324 323 330 339 331 331 327 310 290 278 269 260 240 236 236 238 242 240 230 236 233 237 238 243 249 217 201 207 212 236 233 216 202 206
24 11 339 330 8 15 349 233 247 304 326 303 307 311 314 323 326 329 333 328 326 328 329 313 290 270 261 252 239 230 231 229 237 229 221 229 228 232 234 234 219 252 216 210 192 213 196 230 220
19 349 355 28 12 332 306 199 107 302 299 316 328 335 338 339 340 335 333 326 325 325 324 324 302 276 263 255 245 233 235 232 225 226 217 222 226 224 228 222 224 240 223 207 185 259 206 320 226
21 29 13 17 340 329 168 132 118 333 345 337 336 336 338 337 336 338 334 329 326 329 327 327 309 287 268 258 252 241 228 227 225 224 219 216 223 225 223 221 216 207 201 199 200 215 236 269 218
26 33 23 12 344 64 165 158 161 240 309 304 311 327 329 335 341 341 339 333 327 328 327 322 321 297 277 266 252 247 233 223 226 224 219 215 222 223 222 220 216 209 205 196 197 219 221 240 272
26 31 7 355 356 33 360 285 261 265 274 285 313 312 321 328 333 330 329 327 326 326 327 327 328 311 290 281 267 247 240 229 225 221 222 219 220 224 222 218 218 213 207 204 213 194 211 218 239
14 6 356 23 40 29 357 314 302 293 275 280 298 308 315 317 321 323 320 320 322 322 325 329 327 317 300 297 297 262 241 233 225 222 222 221 221 222 225 221 219 215 214 209 204 214 200 208 213
10 19 254 277 20 37 344 305 292 315 305 289 293 306 305 306 310 318 315 312 315 317 319 323 328 322 306 299 302 293 251 235 229 224 225 221 223 221 223 225 223 219 215 213 211 219 213 205 201
1 20 346 11 8 240 329 299 275 320 305 284 295 293 297 302 304 308 312 317 316 318 315 318 322 328 306 297 301 300 278 244 231 226 222 223 221 219 219 226 226 223 219 216 216 216 220 222 219
3 15 83 253 270 279 307 235 299 319 311 271 281 287 297 299 304 308 309 315 318 319 315 316 318 320 306 295 293 301 287 254 236 226 225 222 222 222 218 218 219 222 218 224 217 222 223 228 227
345 7 353 295 274 288 264 281 315 315 312 268 270 295 294 295 302 306 310 315 319 321 320 320 317 314 312 291 292 297 290 261 237 227 224 225 225 225 222 220 218 214 222 220 215 217 227 230 233
343 359 338 341 339 297 285 291 288 309 314 283 293 290 289 297 302 304 307 313 321 320 319 317 315 310 311 296 293 295 293 274 241 228 223 221 224 225 226 225 224 220 220 225 222 226 223 229 229
317 347 333 303 264 205 295 291 311 315 321 324 324 321 312 316 310 304 307 320 319 317 326 330 324 319 316 300 294 290 294 285 259 227 224 220 222 225 226 227 225 223 221 224 216 228 219 230 225
293 321 316 276 287 273 272 280 331 332 327 324 328 321 323 324 319 325 323 323 320 333 336 328 327 328 321 299 298 290 284 294 283 243 221 221 221 222 224 224 226 226 225 226 219 214 223 231 231
Height
3139 3139 3140 3142 3150 3149 3150 3149 3146 3145 3146 3145 3145 3141 3138 3141 3145 3153 3155 3156 3157 3159 3159 3160 3160 3163 3163 3161 3162 3162 3160 3161 3161 3162 3161 3163 3165 3164 3164 3165 3167 3168 3168 3168 3168 3168 3170 3170 3170
3139 3140 3141 3144 3148 3149 3150 3149 3146 3144 3146 3145 3143 3141 3142 3142 3148 3151 3153 3154 3154 3155 3154 3152 3156 3160 3159 3161 3161 3161 3160 3161 3161 3161 3162 3162 3163 3163 3164 3164 3165 3166 3166 3168 3168 3169 3169 3170 3171
3139 3141 3144 3146 3147 3149 3150 3148 3147 3146 3146 3145 3143 3143 3143 3146 3149 3152 3152 3155 3153 3154 3154 3153 3153 3155 3160 3160 3160 3162 3161 3161 3160 3159 3161 3163 3164 3163 3163 3164 3164 3164 3163 3164 3167 3168 3168 3169 3171
3139 3143 3146 3148 3146 3148 3148 3147 3148 3147 3145 3144 3141 3141 3145 3147 3150 3151 3152 3155 3155 3153 3155 3155 3155 3156 3156 3159 3158 3159 3159 3160 3158 3158 3160 3162 3164 3162 3163 3163 3162 3162 3161 3162 3163 3166 3168 3169 3171
3141 3143 3146 3146 3146 3148 3148 3147 3148 3146 3144 3143 3141 3140 3145 3147 3148 3150 3152 3154 3154 3153 3154 3153 3155 3153 3153 3156 3158 3158 3157 3156 3157 3158 3159 3160 3162 3162 3162 3163 3163 3162 3161 3159 3161 3164 3167 3169 3172
3142 3144 3146 3146 3147 3149 3149 3147 3146 3143 3142 3142 3142 3142 3142 3144 3146 3148 3149 3151 3152 3152 3152 3151 3151 3155 3153 3154 3157 3156 3157 3156 3155 3156 3158 3160 3160 3161 3162 3162 3163 3163 3161 3157 3158 3164 3166 3170 3172
3145 3145 3145 3147 3147 3146 3147 3148 3146 3144 3144 3141 3139 3139 3141 3142 3143 3146 3145 3146 3147 3149 3148 3148 3149 3151 3152 3155 3156 3156 3155 3156 3155 3155 3156 3158 3159 3160 3160 3162 3162 3163 3161 3159 3161 3164 3166 3169 3172
3145 3147 3148 3149 3149 3148 3146 3146 3147 3146 3143 3143 3141 3138 3139 3139 3140 3141 3142 3143 3142 3143 3143 3143 3144 3147 3147 3149 3154 3155 3155 3154 3155 3153 3154 3156 3157 3158 3159 3161 3161 3162 3161 3158 3161 3164 3166 3169 3171
3146 3146 3148 3150 3149 3147 3146 3144 3143 3143 3142 3141 3139 3138 3137 3136 3137 3138 3137 3140 3140 3139 3139 3139 3139 3142 3143 3145 3149 3151 3153 3153 3153 3153 3151 3153 3154 3156 3157 3159 3161 3162 3161 3161 3162 3166 3168 3169 3170
3145 3146 3148 3150 3149 3146 3145 3145 3142 3142 3140 3137 3137 3135 3134 3134 3134 3135 3134 3135 3137 3136 3136 3137 3137 3139 3140 3142 3144 3149 3149 3150 3151 3151 3150 3150 3152 3153 3155 3156 3159 3159 3160 3159 3162 3166 3167 3169 3170
3147 3149 3151 3151 3151 3149 3146 3144 3142 3140 3138 3136 3134 3132 3131 3132 3131 3131 3130 3132 3133 3133 3133 3133 3134 3135 3137 3137 3140 3142 3146 3147 3147 3148 3148 3147 3148 3150 3152 3153 3154 3157 3158 3159 3160 3163 3167 3168 3169
3147 3152 3150 3150 3150 3148 3145 3141 3139 3137 3137 3134 3130 3126 3127 3129 3129 3128 3128 3129 3131 3130 3129 3130 3130 3131 3132 3134 3136 3138 3141 3143 3143 3144 3145 3145 3145 3146 3149 3150 3151 3154 3156 3156 3156 3161 3165 3167 3169
3150 3152 3150 3149 3147 3144 3142 3139 3136 3134 3133 3130 3127 3124 3123 3127 3130 3129 3126 3127 3127 3126 3126 3126 3125 3127 3127 3130 3131 3132 3135 3137 3138 3139 3142 3142 3136 3143 3145 3147 3149 3151 3153 3153 3154 3156 3162 3165 3167
3152 3149 3149 3149 3147 3144 3142 3139 3137 3136 3133 3129 3128 3127 3125 3123 3125 3126 3125 3123 3124 3122 3122 3121 3120 3120 3122 3123 3125 3127 3129 3131 3133 3135 3137 3138 3138 3135 3139 3142 3145 3148 3149 3151 3151 3150 3158 3162 3164
3151 3149 3148 3146 3146 3144 3141 3139 3137 3136 3134 3131 3129 3127 3124 3120 3119 3119 3120 3118 3119 3119 3117 3118 3116 3114 3114 3116 3118 3120 3122 3126 3129 3130 3133 3134 3135 3136 3134 3137 3141 3144 3145 3146 3146 3147 3154 3158 3160
3149 3149 3146 3145 3144 3141 3139 3137 3135 3133 3131 3130 3127 3124 3123 3119 3115 3114 3111 3112 3113 3114 3114 3112 3112 3111 3110 3110 3111 3113 3117 3120 3124 3126 3127 3130 3132 3132 3131 3130 3135 3138 3142 3143 3141 3142 3148 3154 3157
3148 3147 3146 3145 3143 3139 3137 3134 3133 3130 3128 3126 3125 3123 3119 3117 3114 3110 3109 3104 3104 3107 3107 3106 3105 3104 3106 3106 3105 3106 3110 3113 3118 3120 3123 3125 3128 3129 3130 3126 3128 3132 3135 3140 3141 3139 3141 3148 3153
3146 3145 3145 3142 3142 3139 3135 3133 3132 3130 3128 3125 3123 3121 3118 3115 3111 3108 3104 3102 3099 3100 3100 3100 3098 3096 3099 3101 3101 3100 3103 3106 3110 3114 3116 3120 3123 3125 3126 3127 3125 3130 3132 3136 3139 3139 3141 3147 3150
3148 3146 3143 3141 3141 3138 3135 3133 3132 3129 3126 3123 3121 3119 3116 3112 3109 3107 3103 3098 3096 3094 3093 3093 3090 3088 3087 3093 3095 3096 3096 3098 3103 3106 3110 3114 3118 3120 3123 3124 3125 3128 3129 3133 3137 3138 3133 3143 3144
3146 3144 3142 3140 3136 3133 3135 3133 3132 3129 3125 3122 3120 3117 3113 3109 3105 3102 3098 3094 3090 3088 3087 3087 3084 3081 3078 3081 3088 3089 3092 3093 3096 3100 3103 3106 3110 3114 3117 3120 3122 3124 3127 3130 3132 3135 3138 3139 3140
3145 3143 3141 3141 3136 3135 3136 3133 3130 3128 3125 3121 3118 3115 3111 3107 3103 3099 3094 3090 3086 3084 3083 3081 3077 3075 3072 3071 3076 3081 3084 3086 3090 3094 3097 3100 3104 3107 3111 3115 3118 3120 3124 3126 3128 3131 3132 3134 3136
3145 3143 3141 3139 3137 3137 3136 3133 3129 3126 3122 3119 3115 3113 3109 3105 3101 3097 3093 3088 3083 3080 3079 3076 3073 3069 3067 3065 3065 3070 3075 3079 3083 3087 3090 3093 3098 3100 3104 3109 3114 3116 3119 3122 3124 3126 3129 3132 3133
3149 3142 3140 3138 3136 3135 3134 3131 3124 3123 3120 3117 3113 3110 3106 3102 3099 3095 3091 3086 3082 3079 3075 3073 3069 3065 3063 3061 3060 3061 3066 3071 3076 3079 3083 3086 3090 3095 3097 3102 3107 3112 3115 3118 3120 3123 3126 3130 3131
3146 3142 3138 3137 3135 3133 3132 3132 3122 3120 3117 3113 3110 3107 3103 3100 3096 3093 3090 3086 3082 3077 3073 3069 3065 3062 3059 3057 3056 3056 3057 3062 3067 3071 3075 3078 3083 3088 3092 3095 3100 3105 3109 3113 3116 3119 3122 3124 3127
3144 3139 3137 3136 3136 3135 3130 3128 3120 3117 3114 3111 3108 3104 3101 3097 3094 3091 3087 3083 3079 3075 3071 3066 3061 3058 3055 3054 3052 3053 3052 3053 3058 3063 3067 3071 3076 3080 3085 3089 3093 3097 3103 3108 3112 3114 3117 3120 3122
3145 3143 3144 3149 3145 3132 3126 3122 3117 3113 3110 3108 3105 3101 3098 3095 3091 3087 3084 3079 3075 3071 3067 3062 3058 3053 3051 3050 3047 3047 3048 3049 3050 3054 3060 3066 3070 3073 3078 3082 3086 3091 3096 3101 3105 3109 3112 3115 3118
3148 3145 3144 3142 3139 3134 3123 3117 3112 3109 3106 3105 3102 3098 3094 3090 3087 3083 3079 3076 3071 3066 3062 3058 3053 3049 3047 3045 3044 3042 3044 3044 3046 3047 3052 3058 3063 3067 3071 3075 3079 3083 3087 3092 3098 3103 3106 3108 3112
3147 3147 3145 3143 3143 3141 3120 3114 3109 3106 3103 3101 3099 3094 3090 3086 3082 3079 3075 3071 3066 3061 3057 3053 3049 3045 3042 3041 3040 3039 3038 3041 3042 3043 3046 3050 3055 3060 3064 3068 3072 3076 3080 3084 3090 3095 3100 3102 3106
3147 3144 3143 3142 3140 3139 3135 3110 3106 3102 3100 3097 3093 3089 3086 3082 3077 3073 3069 3065 3061 3058 3053 3049 3045 3042 3039 3037 3037 3036 3035 3036 3038 3039 3040 3043 3047 3052 3056 3060 3064 3068 3073 3077 3083 3087 3092 3095 3099
3143 3142 3140 3140 3136 3133 3130 3109 3103 3100 3097 3093 3089 3086 3081 3076 3071 3068 3064 3060 3057 3053 3050 3046 3043 3039 3036 3033 3033 3032 3032 3032 3032 3034 3036 3038 3040 3044 3048 3053 3057 3061 3066 3070 3074 3079 3084 3088 3092